Theta_e
326 321 317 314 313 310 308 301 293 292 288 286 284 284 288 293 292 293 293 293 294 296 296 302 299 298 297 296 299 304 306 291 294 287 289 296 312 323 328 335 341 343 343 344 342 341 343 347 350 351 351 352 352 352 351 350 350 349 349 349 350 348 348 348 351 351 350 350 350 350 350 350 349 349 349 348 348 347 346 345 345 344 343 342 341 342 341 340 340 340 340 340 340 340 340 341 342
322 318 314 314 313 311 305 296 288 283 284 284 287 286 291 291 293 290 292 293 294 300 301 307 308 309 309 309 309 305 305 308 310 295 308 314 321 320 326 338 344 343 344 343 342 340 341 345 348 350 350 352 352 352 351 350 349 349 349 348 348 348 348 347 348 348 350 350 350 350 350 349 349 348 348 348 347 347 346 345 344 344 344 342 341 340 339 339 339 339 339 339 339 339 339 340 342
319 315 314 312 310 306 300 294 291 280 283 281 284 286 290 293 291 290 294 295 298 301 298 298 299 298 300 304 302 299 299 310 314 312 314 318 320 321 326 335 345 345 345 343 342 340 341 344 346 350 351 352 352 352 351 350 349 349 348 348 348 347 347 347 347 347 348 349 349 349 349 349 349 349 348 347 347 346 345 345 344 343 343 341 340 339 338 337 338 340 339 339 339 338 338 340 341
314 315 312 308 308 299 293 288 285 284 285 281 284 289 291 290 291 293 293 295 296 295 296 298 300 301 300 299 301 302 301 306 315 314 313 316 319 323 327 331 344 347 347 345 341 340 343 345 345 350 351 351 352 351 350 350 349 349 349 348 348 347 347 347 347 347 347 348 348 348 348 348 348 349 348 347 347 346 345 343 343 342 342 341 339 339 337 336 336 338 338 338 338 337 338 339 340
312 317 310 307 300 300 291 288 283 281 283 281 285 286 289 290 293 291 295 294 293 293 296 296 298 300 304 302 302 297 300 306 306 315 314 315 319 324 326 329 346 347 346 345 343 341 343 343 345 347 351 351 351 351 350 350 349 348 349 348 347 347 347 347 347 347 347 347 347 348 348 348 348 348 347 347 346 345 344 343 342 342 341 341 338 337 336 335 335 337 338 337 337 337 338 339 339
310 310 310 307 302 300 292 288 287 285 284 285 286 289 289 292 292 291 295 293 293 294 294 296 297 297 306 309 308 307 312 303 310 315 316 319 325 327 328 327 344 345 347 347 344 342 343 341 343 346 351 351 351 351 350 350 350 348 348 347 347 346 346 346 346 346 347 347 347 347 348 348 347 347 347 346 345 344 343 342 341 341 340 339 338 336 333 333 335 335 335 336 337 338 338 338 339
311 303 302 301 299 296 291 284 284 283 291 288 289 290 292 291 292 291 294 294 296 298 298 301 303 301 301 306 304 313 314 315 316 318 319 322 325 327 328 330 342 344 346 347 345 342 342 342 346 349 349 350 351 350 350 350 350 349 348 347 346 346 346 346 346 346 347 347 347 347 347 348 347 346 346 345 344 343 342 342 341 340 338 337 335 333 331 331 335 335 334 335 337 337 337 337 338
310 307 301 294 290 289 286 285 286 283 290 289 291 292 291 292 290 292 292 292 294 296 301 302 297 294 296 303 299 311 307 312 314 318 322 323 325 327 328 335 340 341 345 346 345 343 343 341 347 348 347 348 350 350 350 350 350 349 348 347 346 346 346 346 346 347 347 347 347 347 347 347 347 346 345 344 344 343 342 341 340 339 337 336 334 331 329 330 332 334 334 335 336 335 336 336 337
305 303 298 293 288 286 284 286 288 287 289 290 291 291 302 291 290 291 292 293 294 294 297 297 295 295 295 301 300 304 305 306 304 317 323 325 325 327 332 335 337 338 344 345 344 344 342 339 344 347 347 348 349 349 348 350 349 348 348 347 347 346 346 346 346 346 346 346 346 347 347 346 345 345 344 344 343 342 341 340 339 339 338 335 332 330 329 329 331 332 333 334 335 335 335 336 336
301 300 294 291 287 287 282 286 285 289 290 291 291 295 294 292 291 292 292 294 295 294 296 296 294 295 297 300 299 301 305 304 305 320 322 325 326 328 332 333 335 338 342 344 345 345 343 343 339 342 344 348 349 347 348 347 349 348 347 347 347 348 347 346 345 346 346 346 346 346 346 345 345 345 344 343 342 341 341 340 339 338 336 335 331 328 327 328 329 331 333 334 334 333 334 334 335
295 294 294 288 285 282 285 285 284 288 292 290 291 291 291 291 291 292 292 293 294 296 296 297 299 297 297 297 297 301 302 300 309 317 316 326 328 328 331 335 339 342 343 343 344 344 344 344 340 338 342 343 346 347 347 349 347 348 347 347 347 347 346 346 346 345 345 346 345 346 345 345 345 344 344 342 342 341 341 340 339 338 336 335 331 327 325 326 328 330 332 333 332 332 332 332 334
295 292 289 284 284 285 283 286 288 288 289 290 294 293 292 292 292 292 292 295 294 294 294 296 298 296 296 294 296 299 299 305 303 307 312 328 328 329 332 333 335 336 339 341 342 342 342 342 342 340 338 337 341 343 345 346 347 348 348 348 348 346 346 346 346 345 346 346 345 344 345 344 344 344 343 343 342 341 340 340 339 338 336 334 331 326 324 324 326 329 330 329 329 331 331 330 331
291 291 288 288 287 285 284 286 287 290 287 290 293 296 293 294 294 293 292 291 291 294 295 295 298 296 293 294 296 297 305 305 304 304 326 327 326 326 325 325 324 324 326 330 334 333 337 340 342 341 338 333 335 337 338 340 343 345 347 347 347 347 346 347 346 346 346 345 345 343 344 344 343 343 343 343 341 341 340 339 338 337 336 334 331 327 324 324 326 327 327 326 327 327 328 328 328
292 290 287 288 284 285 285 286 285 288 287 289 290 292 294 295 294 291 293 293 293 293 296 296 298 295 294 294 296 295 295 303 300 315 323 323 321 317 317 318 318 319 319 321 322 325 324 326 329 339 339 340 341 336 332 337 340 343 341 343 344 344 345 346 346 346 345 345 344 343 341 342 343 343 343 342 341 340 339 338 338 336 335 332 330 329 326 324 324 325 325 324 323 323 324 324 325
297 290 286 284 284 285 285 286 289 285 288 289 296 295 294 295 292 292 293 291 295 295 296 298 297 297 293 294 291 295 298 302 303 316 315 313 313 314 315 316 316 317 317 318 318 319 318 322 323 327 335 340 339 338 337 337 334 337 340 339 340 342 344 343 343 342 341 342 341 339 338 337 336 337 338 340 340 338 335 334 337 337 335 332 330 329 327 325 323 322 322 321 321 321 322 322 322
295 291 286 286 286 285 287 287 285 286 289 290 294 292 293 296 294 295 294 295 294 297 296 297 297 295 296 294 293 296 299 300 305 317 311 309 311 312 312 313 313 314 315 316 316 317 317 320 321 324 325 326 336 339 338 337 332 331 335 336 336 337 338 340 339 337 335 334 333 332 330 331 330 333 329 332 333 337 334 332 335 335 335 332 330 329 328 326 324 322 321 320 320 320 320 321 320
294 289 286 281 286 287 288 288 287 288 287 290 291 294 294 294 297 295 297 295 296 295 294 295 296 297 295 296 297 298 303 306 315 312 308 307 307 309 310 311 311 313 313 314 314 314 315 317 318 321 320 323 325 336 339 339 336 328 331 330 332 333 333 334 334 328 324 323 325 322 325 334 334 332 331 332 327 331 326 327 332 335 335 333 331 329 327 326 325 324 322 321 320 318 316 316 318
292 287 283 285 283 285 287 289 289 288 291 292 293 291 292 293 295 297 295 296 293 293 293 293 296 297 296 298 299 302 305 314 315 309 305 304 302 303 306 307 308 309 310 311 312 313 314 314 315 318 319 321 323 327 339 339 337 331 338 334 332 328 327 325 329 333 331 330 322 327 334 332 334 334 332 331 329 328 327 325 329 334 335 334 333 329 327 326 326 325 324 322 321 319 314 303 304
289 284 282 284 284 290 290 288 291 291 292 292 292 290 293 293 294 296 295 292 293 294 293 293 295 298 300 300 300 302 306 312 312 306 303 303 302 302 301 302 306 307 309 309 310 311 312 314 315 316 316 318 321 321 330 339 337 336 338 336 331 328 330 330 333 333 334 332 331 333 332 333 334 333 332 330 328 324 327 324 328 331 333 331 332 332 329 328 328 328 326 324 321 316 307 304 303
291 285 286 283 288 289 289 290 291 291 293 292 292 292 293 295 295 295 295 291 292 292 292 293 294 295 298 299 300 300 304 304 305 303 301 300 300 301 300 301 302 303 304 306 308 310 311 312 313 314 315 317 320 319 323 334 338 337 337 337 336 335 333 331 330 333 334 334 333 334 334 333 334 333 329 324 326 328 326 323 326 327 328 327 327 327 327 327 325 324 322 319 314 310 307 306 305
293 286 283 292 288 291 294 290 292 291 292 291 291 292 293 294 293 295 290 293 291 291 292 294 295 295 297 298 298 299 301 302 300 301 300 300 299 300 301 301 301 303 302 303 304 306 309 311 311 313 314 317 318 319 320 326 336 338 337 336 336 335 333 333 333 331 332 332 333 333 335 333 333 332 330 329 330 329 329 329 329 328 328 326 322 320 319 317 315 312 311 310 308 308 308 307 307
288 291 288 289 288 293 295 292 292 290 290 291 289 293 294 294 294 291 293 291 290 293 293 294 294 297 298 298 298 298 299 300 300 300 300 300 300 300 300 301 301 300 301 302 303 305 306 308 310 312 314 317 319 319 319 322 327 336 336 336 335 335 334 334 334 333 332 331 333 332 333 333 331 330 330 329 328 330 329 329 328 327 325 324 322 320 316 316 315 312 311 310 308 308 307 307 306
292 292 290 288 289 294 294 292 292 290 292 291 291 293 293 294 293 290 291 294 290 292 292 293 294 298 299 299 298 298 298 299 299 299 299 299 298 299 300 300 300 302 302 304 305 304 305 306 309 311 314 318 320 320 322 326 328 334 337 336 335 334 334 333 333 333 333 333 332 331 331 330 330 329 329 327 327 327 326 328 326 326 326 324 322 321 319 318 318 314 312 310 309 309 308 307 307
289 292 291 295 291 294 292 295 291 289 292 291 290 293 294 292 294 291 291 290 294 293 294 294 296 298 299 298 298 299 298 298 298 299 298 299 299 300 300 301 301 303 304 306 305 303 304 306 307 311 316 317 321 320 328 328 329 329 329 330 331 328 328 328 328 328 329 330 330 330 328 330 330 329 328 328 328 327 326 325 327 326 326 326 324 323 322 321 320 316 313 311 311 310 310 309 310
292 294 292 293 292 292 292 291 290 289 291 292 292 293 294 291 292 292 292 292 294 293 294 296 297 297 297 298 297 297 297 296 297 297 298 297 297 299 298 298 303 305 305 306 305 305 308 311 311 311 313 317 321 326 326 326 326 325 324 324 324 322 324 324 325 325 325 326 327 328 328 328 328 327 325 324 323 322 322 322 322 321 322 322 324 322 324 322 320 318 316 313 312 312 311 310 310
292 295 292 292 294 293 292 292 291 291 293 291 293 292 291 290 292 293 292 293 293 293 294 295 296 295 295 296 297 297 296 296 296 296 298 296 296 298 297 298 301 304 306 306 307 309 311 313 313 311 315 322 326 325 324 322 321 320 319 319 319 318 319 320 320 320 321 322 322 323 324 325 324 323 322 322 321 320 319 319 319 319 319 320 320 319 320 320 319 319 317 315 314 313 312 309 309
292 292 292 294 293 292 293 293 293 291 293 291 293 291 292 291 293 292 293 293 292 294 293 293 295 295 294 295 296 296 297 296 297 296 295 295 295 296 296 298 301 304 306 306 307 309 311 312 313 314 317 321 322 320 319 317 315 315 314 315 315 315 315 316 317 317 317 319 320 320 320 320 321 321 320 319 319 317 317 317 317 317 317 318 318 317 318 317 317 316 315 314 312 310 309 309 309
292 293 294 293 290 291 291 291 291 292 295 290 293 291 290 291 292 292 292 293 293 293 292 292 292 293 293 294 294 294 296 295 295 295 296 294 296 296 296 299 303 304 304 305 306 309 311 311 312 313 317 317 317 316 314 314 313 312 311 312 313 313 313 313 313 314 314 316 319 319 319 318 317 318 318 317 315 315 314 314 314 313 313 314 315 315 314 313 312 311 311 310 309 306 305 306 307
293 294 295 291 289 294 292 293 292 292 294 291 292 293 291 290 290 290 290 293 292 292 292 291 291 291 292 292 293 293 295 295 293 294 295 296 295 295 298 300 304 304 305 306 306 308 309 310 310 311 315 315 314 313 312 311 311 311 310 311 311 311 312 312 311 311 313 314 314 315 316 316 316 315 315 314 313 313 312 311 310 310 310 310 310 309 309 309 308 307 305 306 304 304 304 304 306
294 291 290 291 287 288 292 292 290 292 294 290 293 287 286 290 294 291 293 293 291 291 291 291 290 290 291 291 292 293 292 293 293 294 294 294 295 295 297 299 302 304 305 306 307 306 308 310 310 311 312 312 311 311 311 310 309 308 308 308 309 311 310 308 308 308 309 310 310 311 310 310 311 312 312 311 311 310 309 309 308 307 307 305 304 303 302 302 302 302 302 302 302 301 302 303 305
292 291 287 286 286 284 290 290 290 293 292 290 294 287 288 288 288 288 291 292 293 292 292 291 290 290 291 291 292 293 292 292 294 294 294 294 294 295 296 299 302 304 304 306 306 306 307 307 309 308 309 308 309 309 309 307 307 306 306 306 305 306 306 306 306 307 307 307 307 307 307 307 307 307 308 307 307 307 306 306 306 305 304 303 301 301 300 300 300 299 300 299 299 300 300 302 303
287 288 285 280 285 283 287 291 291 293 292 291 293 286 291 292 292 289 291 292 291 292 291 291 290 291 291 291 291 292 293 292 292 293 294 294 295 296 297 301 304 304 305 304 304 306 306 306 307 307 307 306 305 306 306 304 304 303 304 303 303 302 302 303 304 304 304 305 305 304 305 304 304 304 304 305 304 304 303 303 303 303 304 304 299 298 297 296 295 294 294 297 298 297 300 300 301
282 287 282 285 284 283 288 291 290 292 291 292 292 289 286 290 288 288 291 291 290 290 290 290 290 291 291 291 292 291 292 292 291 292 293 294 294 297 300 302 303 305 305 303 303 305 305 305 306 305 304 304 303 303 302 301 302 300 299 299 299 301 301 300 300 301 302 302 302 302 302 302 302 301 301 302 302 301 301 300 300 300 300 298 297 296 294 294 293 292 291 291 294 295 297 297 297
283 282 285 281 285 284 286 287 290 290 291 289 290 288 289 290 287 290 290 291 289 290 291 290 291 291 291 291 291 291 291 291 292 292 292 293 295 297 300 303 303 304 304 304 304 305 304 304 304 303 303 303 302 301 301 299 298 298 297 297 296 296 296 297 298 299 298 298 299 298 299 299 298 298 298 298 298 298 298 298 297 297 297 296 294 293 292 291 290 290 288 288 290 293 294 294 294
281 285 284 286 284 284 287 286 291 290 290 289 289 287 290 293 291 289 290 290 290 291 292 291 290 291 291 291 291 291 291 291 292 292 292 293 294 297 300 303 302 302 302 304 304 304 304 303 302 302 301 301 300 299 299 298 297 296 296 295 295 293 293 294 295 295 295 295 295 296 296 296 296 295 295 296 295 295 295 294 294 294 293 293 291 291 290 289 288 288 289 288 288 289 291 292 292
284 285 284 282 286 285 285 289 288 291 287 288 286 288 290 292 293 291 289 290 290 291 290 290 290 290 291 291 291 291 291 291 291 292 292 293 294 297 300 303 303 302 301 303 303 303 302 302 301 301 300 300 299 298 297 297 298 297 294 295 293 292 292 292 292 293 293 293 293 294 294 294 294 294 293 293 293 292 292 292 291 292 291 291 290 288 287 286 286 287 287 289 289 288 287 287 289
287 285 284 285 285 286 287 287 288 288 289 287 289 289 290 291 292 294 289 289 289 290 290 291 291 291 291 291 292 292 291 292 291 291 292 293 294 298 300 302 303 302 302 302 302 302 302 301 300 299 299 299 299 298 297 296 295 295 295 295 292 292 291 291 291 291 291 291 291 292 292 292 292 293 293 292 291 291 290 290 290 290 290 289 288 286 286 286 286 285 285 287 288 288 285 284 284
290 287 285 286 284 286 288 290 289 288 289 284 285 287 288 290 292 292 288 288 289 290 290 291 291 291 292 292 292 292 292 289 290 290 291 290 293 298 300 302 302 301 301 302 302 302 302 301 300 299 299 299 300 300 298 296 295 295 294 291 291 291 290 289 288 289 290 290 290 290 291 290 291 291 291 291 291 290 289 289 289 288 287 286 286 286 285 286 284 284 285 285 284 284 282 283 284
287 287 285 284 286 285 289 288 289 289 288 287 286 286 288 290 291 291 289 290 291 292 293 294 293 292 292 292 292 292 290 290 290 291 291 291 294 298 300 301 301 301 300 301 302 302 301 301 300 300 300 299 299 298 297 294 293 293 292 290 289 288 289 289 288 289 289 289 289 289 290 290 289 288 289 290 289 288 287 286 286 286 285 286 285 284 284 283 283 283 283 284 283 283 283 284 283
286 285 285 286 283 287 284 285 287 290 289 285 284 285 288 290 291 291 293 292 292 292 292 293 294 293 293 293 293 292 291 291 290 290 291 291 294 297 299 300 301 301 300 300 300 301 301 301 300 300 298 297 296 295 293 292 291 291 290 289 289 288 287 288 288 288 287 288 287 288 288 288 288 287 287 287 286 286 286 285 285 285 284 284 284 284 283 283 283 282 282 283 283 281 280 282 283
285 287 285 284 286 286 288 286 287 286 289 285 287 287 289 291 291 292 292 291 291 292 290 291 292 293 294 292 292 293 292 292 290 290 290 291 293 296 299 300 302 300 300 299 298 299 299 299 299 297 296 295 294 293 292 291 290 288 288 288 288 287 287 287 286 285 286 286 286 285 285 286 286 285 285 285 285 285 285 284 284 284 284 284 284 283 283 282 282 282 282 282 281 281 280 279 282
284 285 289 289 288 288 285 285 288 283 283 284 287 282 280 283 288 291 288 287 289 291 291 292 293 292 292 292 293 292 292 292 292 291 291 291 293 297 299 300 300 300 300 298 296 298 297 296 296 296 295 294 292 291 291 290 289 288 287 287 286 286 284 285 284 284 283 283 283 282 284 284 284 284 284 284 285 285 284 284 284 284 283 283 283 283 282 282 282 282 282 281 281 281 282 280 280
285 286 288 290 289 287 286 286 286 280 280 285 286 284 281 283 289 288 286 288 291 291 289 292 293 293 291 292 293 291 291 290 290 291 291 291 293 296 299 300 300 300 300 298 296 296 296 295 295 295 294 293 292 291 291 291 290 290 290 289 288 287 285 283 283 283 283 282 283 283 283 283 283 283 283 283 283 284 283 283 283 283 283 283 283 283 282 282 282 282 282 282 282 284 281 280 280
283 285 284 288 287 286 287 285 287 283 281 284 284 282 282 284 289 290 290 289 291 291 292 292 293 292 292 292 292 291 291 291 291 291 291 292 293 296 298 300 300 300 299 296 295 295 295 294 293 293 292 292 291 291 290 291 290 290 288 288 287 286 285 283 283 282 283 283 282 282 282 282 282 283 283 283 283 283 283 283 283 283 283 282 283 282 282 282 282 283 282 282 282 281 280 280 278
285 286 286 286 288 286 285 285 283 283 282 281 281 283 283 281 283 284 287 287 289 292 294 295 296 294 292 291 291 290 291 291 291 291 291 291 292 296 299 300 301 299 297 296 294 294 294 294 293 292 291 290 290 290 289 288 289 288 287 286 284 284 284 283 283 284 282 282 282 281 282 281 282 282 282 283 282 283 283 282 282 282 282 282 283 282 281 281 281 281 281 281 281 280 280 279 279
287 286 287 285 284 283 281 281 285 282 280 279 283 283 280 285 283 286 283 287 289 292 295 296 297 295 292 291 290 290 290 290 291 291 292 292 292 295 299 300 300 297 296 295 294 293 293 293 292 292 291 290 289 288 288 288 288 288 287 285 284 283 283 283 282 281 281 281 281 281 281 281 281 282 282 282 282 282 282 282 282 282 282 282 282 281 281 280 280 280 280 280 280 280 279 279 278
289 287 288 286 282 280 279 280 279 281 277 283 285 283 285 282 282 286 288 288 290 294 294 295 295 291 290 291 290 290 289 290 290 290 291 291 292 294 297 299 298 296 295 294 293 292 292 292 291 290 290 290 289 288 287 287 287 287 286 284 283 283 282 282 281 280 281 281 280 280 280 281 281 281 281 281 281 282 282 282 282 281 282 282 281 280 280 280 280 280 279 279 279 279 278 279 279
291 286 282 286 286 279 279 274 276 276 278 282 284 285 285 280 281 285 289 287 286 292 292 294 293 289 289 288 289 289 289 289 289 290 290 290 290 292 296 297 295 294 293 293 292 292 291 291 290 289 289 289 288 288 287 287 286 285 285 284 283 283 282 282 281 280 281 280 280 280 280 280 280 280 280 280 280 280 281 280 280 280 280 280 279 279 279 279 279 279 279 278 278 278 278 279 278
288 286 288 283 275 273 274 272 276 274 279 280 279 283 281 283 288 283 285 290 290 288 292 294 293 291 288 287 288 288 289 288 289 289 289 289 290 292 294 295 294 293 292 292 291 291 291 291 290 289 288 288 287 287 286 286 285 284 284 284 283 283 283 282 282 281 281 281 281 280 280 280 279 279 279 279 279 279 280 279 279 279 279 279 279 279 279 279 278 278 278 278 277 277 277 277 277
287 288 284 281 274 273 270 266 265 271 276 278 282 283 283 282 286 292 294 295 295 292 290 291 290 291 289 288 288 288 288 288 289 289 289 290 290 292 294 294 294 293 292 291 291 291 291 290 290 289 287 287 287 286 285 284 284 284 284 283 283 283 282 282 282 281 281 281 281 281 280 280 280 280 279 279 279 279 279 279 279 279 279 279 279 278 278 278 278 278 277 277 277 277 277 277 276
290 288 290 286 281 272 267 267 275 277 275 276 278 279 278 278 284 286 290 288 287 286 287 287 287 287 287 286 286 286 287 287 288 289 289 290 290 291 293 294 293 293 292 291 291 290 290 289 289 288 286 286 286 285 284 284 283 283 283 283 283 283 282 282 282 282 281 281 281 280 280 280 280 279 279 279 279 279 279 279 279 279 279 278 278 278 278 277 277 277 277 277 277 276 276 276 276
286 284 284 281 284 280 280 275 272 271 271 272 275 280 280 284 286 286 284 284 286 288 290 288 290 288 285 285 286 287 287 287 288 288 289 289 290 291 292 293 293 293 292 291 290 290 289 289 288 287 286 285 285 284 283 283 283 283 282 282 282 282 283 282 282 282 281 281 281 280 280 279 279 279 279 279 279 279 279 278 278 278 277 277 277 277 277 277 276 277 276 276 276 277 276 275 275
284 286 285 285 284 286 280 275 273 274 271 279 274 281 283 284 288 290 292 286 288 287 287 287 290 290 284 286 286 286 287 287 287 288 289 289 289 290 292 292 292 292 291 291 290 289 289 289 288 286 285 284 284 284 283 283 283 282 282 282 282 282 282 281 281 281 281 280 280 280 280 279 279 279 279 279 278 278 278 278 277 277 277 277 276 276 276 276 276 276 275 275 275 275 275 275 275
286 282 285 286 286 286 282 278 271 268 274 277 278 281 282 279 284 281 285 287 289 287 288 289 287 284 284 288 286 286 287 287 287 287 288 289 289 289 290 291 291 292 291 291 290 289 290 289 288 286 284 283 283 283 283 283 283 282 282 282 282 282 282 281 281 281 281 280 279 279 279 279 279 279 279 279 278 278 278 278 277 276 276 276 276 276 275 275 275 275 275 275 275 275 275 275 275
287 284 289 289 282 279 280 275 277 269 271 275 275 276 280 284 286 285 285 286 289 290 291 288 289 288 287 288 284 285 285 286 286 286 287 287 288 289 290 290 289 291 291 291 290 289 289 289 288 287 285 284 284 284 283 283 283 283 283 282 282 282 281 281 281 281 281 280 279 279 279 279 279 279 278 278 277 277 277 276 276 276 276 275 275 275 275 275 275 274 274 274 274 274 274 274 274
288 289 288 285 284 278 278 283 275 277 271 268 277 275 284 284 285 286 290 288 289 291 290 289 291 291 292 289 285 285 286 286 287 287 287 288 288 288 289 289 288 289 289 290 289 289 289 289 288 287 286 285 284 283 283 283 283 283 283 282 281 281 281 281 281 280 280 280 279 279 279 279 278 278 277 277 277 276 276 276 275 275 275 275 275 275 275 274 274 274 274 274 274 274 273 273 273
284 285 284 286 282 284 282 281 278 278 268 268 273 279 284 284 287 287 291 290 290 290 291 291 292 292 290 287 285 286 286 286 287 287 287 287 287 287 287 288 288 287 288 290 289 288 289 288 287 287 285 284 283 283 283 283 283 283 282 281 281 281 280 280 280 280 280 280 279 280 279 279 278 277 277 277 276 276 276 276 275 275 275 275 274 274 274 274 273 273 273 273 273 273 273 272 273
290 289 286 288 284 281 279 279 280 275 277 278 271 280 287 285 285 291 288 289 289 289 290 291 291 290 287 284 285 286 286 286 286 287 287 286 286 286 286 286 286 286 287 288 288 287 287 287 287 287 286 285 283 283 283 283 283 283 282 281 281 280 280 280 280 280 279 279 279 279 278 278 277 277 277 276 276 276 276 275 275 275 275 275 275 274 273 273 273 273 272 273 273 272 272 272 272
Wind_Speed
7 5 4 2 3 2 2 7 2 2 5 1 1 1 1 0 1 1 1 2 2 2 2 2 4 3 1 2 7 5 0 2 1 3 1 1 1 3 2 3 4 6 7 4 3 3 3 5 7 7 10 11 11 11 11 10 10 10 10 11 11 11 12 12 14 14 13 13 13 13 14 14 15 15 15 16 14 14 15 15 15 14 14 14 14 14 14 14 15 15 15 14 14 15 15 15 15
4 4 3 1 1 1 1 2 4 2 6 3 0 1 1 2 1 3 2 2 1 2 1 10 9 12 12 10 7 2 4 1 3 2 2 3 4 2 3 2 7 9 6 4 3 3 2 3 7 8 9 11 11 10 10 10 9 10 10 10 11 11 11 11 12 13 14 12 13 13 13 13 14 14 14 15 15 14 15 15 14 14 14 14 14 13 13 14 14 14 14 14 14 15 15 15 15
3 5 1 3 3 4 3 5 0 1 5 2 2 4 1 0 3 3 2 4 6 7 3 5 6 4 1 0 5 3 1 1 1 1 2 2 1 2 5 2 2 7 7 4 3 3 2 4 8 9 10 11 11 10 9 9 9 9 9 10 10 11 11 11 11 11 12 12 12 12 13 13 13 14 14 14 15 15 15 14 14 13 13 13 13 13 13 14 14 14 14 14 15 15 15 15 15
0 3 1 3 2 3 1 4 5 7 4 5 1 2 1 3 5 4 3 3 4 3 1 1 4 2 2 8 0 1 1 2 1 1 1 2 0 4 3 3 3 4 5 4 3 3 3 4 7 7 8 10 10 10 9 9 8 8 8 9 9 10 10 11 11 11 11 12 12 12 12 13 14 14 14 14 14 14 14 13 13 12 12 12 13 13 14 14 14 14 15 15 15 14 14 15 15
1 1 2 2 4 1 4 1 5 3 3 5 6 4 3 4 5 3 0 2 2 4 1 2 4 2 1 4 0 1 1 3 4 2 2 3 2 4 3 2 3 6 6 4 3 3 3 7 7 7 8 9 10 10 10 9 9 9 8 8 9 9 10 10 10 11 11 11 12 12 12 13 13 14 14 14 14 13 13 13 12 12 12 13 13 14 14 14 14 14 14 15 15 15 14 15 16
4 2 3 1 1 2 6 3 3 0 4 5 3 4 5 6 4 4 1 2 1 2 2 2 3 4 2 1 1 1 1 1 2 2 0 1 6 7 4 2 4 6 5 5 3 3 3 7 7 8 8 9 10 10 9 9 9 8 8 9 9 9 9 10 10 10 11 10 11 11 11 12 13 13 13 13 13 13 13 12 12 12 13 13 14 14 14 14 15 15 15 14 14 15 15 14 15
1 3 4 4 3 5 3 5 3 3 1 6 3 3 7 5 5 4 2 2 1 5 1 2 4 4 4 0 1 0 1 4 1 1 0 5 7 5 3 3 5 4 4 4 3 3 4 7 8 9 9 9 10 9 9 9 9 9 8 9 9 9 9 9 10 10 10 10 10 10 11 12 12 12 12 13 13 13 13 12 11 12 13 13 14 14 14 14 15 15 15 15 15 15 15 15 16
2 2 2 4 1 4 3 2 2 2 0 4 2 5 5 5 4 2 1 3 1 1 1 3 1 5 0 3 1 1 4 0 3 5 5 3 4 5 2 4 5 3 4 4 3 2 4 8 8 8 8 9 9 9 10 9 9 9 8 9 9 9 9 9 10 10 10 10 10 10 11 11 11 11 11 12 13 13 12 12 12 12 13 13 13 13 13 14 15 15 15 14 15 15 15 16 16
4 7 0 7 4 3 3 2 0 2 4 1 3 4 2 4 3 2 2 0 1 1 3 1 1 2 2 2 1 2 3 4 4 4 4 5 5 5 1 4 5 3 3 3 3 2 3 6 8 8 7 7 8 9 10 10 9 9 8 8 8 8 9 8 8 8 8 9 9 10 11 11 11 11 11 12 13 13 12 12 12 12 12 12 13 13 13 13 14 14 14 14 14 15 15 16 16
2 2 0 3 4 5 2 1 5 2 1 2 3 1 2 3 2 1 6 2 2 2 1 0 1 2 3 3 1 2 1 5 5 3 5 5 5 3 4 3 3 5 3 4 3 2 2 4 6 8 6 6 7 7 8 8 9 9 9 8 8 7 8 8 8 8 8 9 9 9 10 10 11 11 11 11 12 13 12 12 11 11 11 12 12 12 12 13 13 14 14 14 14 14 15 16 16
1 6 3 5 5 3 2 3 2 1 1 3 3 4 4 3 4 2 1 4 0 1 2 2 4 4 3 1 2 3 3 4 2 1 4 5 5 5 4 5 5 3 4 4 3 3 2 2 4 4 6 7 7 6 6 6 8 8 8 8 8 7 8 8 8 8 8 9 9 10 10 10 10 10 10 11 12 12 12 12 11 10 11 11 12 12 12 13 13 14 14 14 14 14 15 15 15
1 1 2 4 3 6 4 5 1 3 3 2 1 2 1 5 4 3 3 6 1 1 2 2 3 5 3 1 1 0 5 1 1 2 3 4 4 5 5 5 7 6 5 4 4 4 3 2 0 0 4 4 4 5 6 5 6 6 7 7 7 8 9 9 8 9 9 9 9 8 10 10 10 10 10 11 12 12 12 11 10 10 11 11 11 12 12 13 14 14 14 14 14 14 14 15 15
4 2 6 6 2 1 3 4 3 0 1 3 3 0 1 3 4 7 3 4 1 4 1 2 4 2 2 1 2 3 0 1 0 1 3 4 4 5 6 7 7 8 8 6 6 6 5 4 1 3 2 5 5 6 5 4 4 5 5 6 5 6 7 8 9 9 9 10 10 9 8 9 8 10 10 11 11 11 12 11 10 11 11 11 11 12 13 13 14 14 14 14 14 14 14 15 16
4 5 4 2 1 4 6 3 1 4 3 4 2 1 0 1 1 5 9 4 1 1 0 3 3 2 1 1 1 2 4 2 1 1 3 5 4 6 7 6 7 8 7 7 6 6 5 6 6 6 4 3 4 4 6 6 5 3 4 4 5 5 7 7 7 7 8 9 10 8 8 9 9 9 9 9 11 12 10 8 9 11 11 11 12 12 13 13 14 14 14 14 14 14 15 16 16
1 2 6 5 2 2 1 6 9 5 6 2 1 0 1 2 4 1 3 7 1 0 4 1 1 0 4 7 5 6 5 3 1 3 4 5 6 6 6 5 6 6 8 9 5 9 8 8 7 5 4 2 2 2 2 5 6 2 5 4 3 5 6 7 6 6 6 7 8 9 9 10 9 10 9 9 10 10 9 8 9 10 11 11 11 12 13 13 14 14 14 14 14 14 15 15 16
4 6 5 4 3 4 3 1 2 3 4 4 2 1 4 1 0 1 1 1 3 1 1 2 3 0 1 6 3 5 6 1 3 4 5 5 4 5 6 7 7 7 6 8 7 8 6 6 6 4 5 6 4 2 3 3 5 7 7 6 4 4 4 5 7 6 6 7 7 8 8 7 7 7 9 8 10 10 8 7 8 8 11 10 10 11 12 12 13 14 14 14 13 14 14 14 14
2 4 4 4 2 3 3 3 5 4 3 3 2 1 2 1 0 1 0 2 6 1 3 0 1 1 0 0 1 1 1 1 6 5 5 4 4 4 4 5 5 4 5 6 6 5 5 4 6 6 6 6 6 2 2 2 3 4 5 8 5 1 5 5 6 8 8 7 6 6 7 5 4 4 5 5 8 7 8 8 7 8 10 10 10 10 11 11 12 12 13 13 13 12 11 13 13
2 3 6 3 3 3 5 6 9 1 5 5 3 3 6 2 0 1 1 8 3 2 4 3 3 3 1 1 2 1 1 7 6 7 5 4 2 2 4 3 3 3 5 6 5 5 3 5 4 5 4 5 5 3 1 2 2 3 3 3 4 2 3 4 5 5 4 4 5 4 3 4 4 3 3 5 5 6 7 9 7 8 9 8 8 9 10 10 10 11 11 12 13 12 11 7 7
5 2 4 6 4 2 6 3 6 2 3 5 2 2 5 4 6 2 2 1 1 1 1 3 2 2 2 2 3 4 4 6 6 6 5 5 3 4 2 1 2 2 3 5 5 5 5 3 4 5 4 4 6 3 3 1 3 3 2 3 2 5 3 3 5 4 3 4 3 3 2 2 3 3 3 4 6 8 8 9 8 8 8 7 7 8 9 9 10 10 10 10 11 10 7 6 6
1 3 2 2 7 2 4 4 5 5 2 5 4 1 1 1 2 1 2 4 0 4 4 1 2 3 4 1 2 3 5 4 5 6 5 4 3 3 3 2 1 1 1 2 4 4 3 4 4 2 4 4 4 4 3 3 3 3 3 4 3 3 3 2 3 4 3 3 4 3 3 2 3 3 3 6 6 5 4 8 9 9 8 7 8 6 9 9 10 10 11 9 6 5 6 6 6
0 3 3 3 4 2 1 4 3 3 4 4 3 1 1 1 2 2 3 4 4 6 7 8 11 9 8 5 2 4 5 5 4 5 6 4 2 1 2 2 2 0 1 3 3 4 5 5 4 5 4 3 3 3 3 2 1 4 3 4 3 4 3 3 3 3 3 3 4 3 3 3 3 3 4 4 4 5 5 5 5 5 5 5 6 5 5 6 6 5 6 6 5 5 6 6 6
3 1 1 2 2 1 2 2 3 4 2 6 2 5 4 1 1 3 7 5 6 7 5 8 4 9 11 9 6 4 5 6 5 5 6 6 5 4 1 0 1 1 1 1 3 4 4 5 5 3 3 3 1 2 3 3 2 3 5 4 3 3 4 3 3 4 4 3 3 3 4 4 3 3 3 1 5 6 5 5 5 4 3 4 4 5 4 5 5 5 5 6 6 5 5 6 5
2 1 0 2 2 1 1 2 3 5 3 5 4 3 3 2 1 2 5 7 4 2 5 4 5 8 7 4 6 6 6 7 6 7 6 5 4 3 3 2 2 0 1 1 2 3 4 4 4 4 4 2 3 3 2 1 0 1 6 5 4 3 3 3 3 3 3 3 4 3 4 4 3 3 3 4 1 3 4 2 3 2 3 2 2 5 4 3 4 5 5 5 5 6 6 5 6
6 2 0 0 2 3 4 2 5 2 10 5 4 2 3 3 4 1 3 4 2 2 1 3 5 8 7 8 5 7 6 7 6 4 4 5 5 5 4 3 2 0 0 1 3 3 4 4 4 3 4 2 3 3 1 3 2 4 6 5 4 5 5 5 4 4 3 5 4 3 3 4 4 4 4 4 4 6 5 5 4 4 4 4 3 2 3 3 5 5 5 5 6 6 6 5 6
2 1 1 1 1 2 0 0 1 2 1 0 5 4 3 5 2 1 5 5 0 3 4 6 7 7 5 6 5 5 5 3 4 3 1 1 3 2 1 1 2 1 1 2 3 3 3 3 3 4 3 2 2 2 2 3 4 6 7 5 6 2 7 5 4 6 5 4 6 4 4 4 4 5 5 5 6 6 6 5 5 4 5 4 4 4 3 4 5 6 6 5 5 6 6 6 6
0 0 1 0 0 2 0 0 1 1 1 2 3 4 2 3 2 4 7 4 3 3 5 5 6 6 5 6 6 6 6 5 4 4 4 2 2 3 2 2 2 2 2 2 2 2 3 4 3 3 3 3 4 5 2 5 5 7 6 6 5 2 7 7 3 7 5 5 5 5 6 5 4 5 6 5 7 7 6 5 6 5 6 4 5 5 4 5 5 6 6 5 6 6 6 5 6
2 1 1 1 0 2 0 4 2 1 1 2 4 2 1 2 1 8 1 4 4 5 5 3 6 7 5 5 5 4 6 6 6 3 2 1 2 3 3 2 2 2 1 2 2 3 3 4 2 2 2 3 5 6 4 6 5 6 6 6 5 3 6 8 6 6 5 5 5 6 7 6 5 4 6 6 6 7 6 6 6 5 6 5 5 6 5 6 6 7 7 6 5 5 6 5 6
3 1 0 0 6 2 1 1 4 1 2 4 5 3 1 2 1 8 3 5 5 8 5 4 4 5 5 4 5 4 4 4 3 4 7 5 6 4 4 3 2 2 2 2 3 3 3 2 2 2 1 4 8 7 6 7 7 7 6 5 6 4 5 6 6 6 7 4 4 7 6 6 5 5 6 5 7 7 6 7 6 6 5 5 5 6 7 6 7 7 8 6 4 5 6 6 5
0 0 1 4 6 3 1 5 2 4 3 5 4 1 3 1 8 4 2 5 4 6 6 5 5 4 4 4 4 4 5 5 4 4 6 5 4 3 5 4 4 3 3 2 3 1 1 2 1 2 3 5 9 8 6 6 8 7 6 6 6 2 6 7 7 5 7 5 5 6 6 6 5 5 6 6 7 7 7 7 7 6 6 5 6 7 7 6 7 7 8 6 5 5 6 6 6
1 5 1 4 6 5 2 0 1 5 2 5 2 5 8 10 13 1 2 8 4 5 5 5 4 4 4 4 4 4 3 4 5 6 5 4 4 4 4 4 4 4 3 2 2 1 1 1 1 3 4 6 9 7 6 6 7 5 6 4 5 3 5 7 7 5 7 4 6 6 7 7 6 6 6 7 7 7 7 7 7 7 5 5 6 6 7 5 6 7 5 6 6 7 7 5 7
1 1 3 0 3 4 2 0 2 5 1 4 1 4 8 6 7 4 4 6 11 9 7 6 6 5 5 5 5 6 6 5 6 6 5 4 4 3 4 3 3 3 2 2 2 2 2 2 2 4 5 6 8 7 7 6 8 5 7 4 5 6 3 7 7 7 7 5 6 6 7 7 8 7 6 7 7 7 8 7 7 6 5 5 7 7 7 7 7 7 5 7 6 6 7 7 8
2 1 3 3 3 5 7 2 6 6 0 0 2 3 11 8 8 2 5 5 5 9 7 7 7 6 6 5 6 6 6 5 5 5 5 5 4 4 4 5 4 3 3 2 2 3 3 3 3 5 5 5 7 7 7 5 10 5 7 4 7 4 4 7 5 9 6 5 7 6 7 8 8 7 7 7 8 7 7 7 6 5 8 6 6 7 7 7 6 7 6 5 8 7 7 7 6
5 1 4 1 1 5 9 0 1 1 2 1 5 7 4 5 3 2 3 5 5 5 6 7 8 8 7 7 7 5 5 6 5 5 5 5 5 4 5 4 4 4 3 3 3 4 4 4 4 5 6 7 7 7 8 6 10 6 7 5 6 6 8 6 7 8 6 5 7 6 6 7 8 8 7 7 8 7 7 7 6 6 6 7 8 6 7 5 5 7 7 6 4 7 9 9 8
3 2 3 4 2 2 2 5 1 1 3 4 2 2 8 4 2 1 1 5 5 7 8 8 8 7 7 6 7 7 8 7 10 8 7 5 5 5 3 3 4 3 3 3 3 6 6 5 4 5 6 7 6 8 6 4 9 6 7 7 6 5 7 7 6 7 7 6 6 7 6 7 8 8 8 7 8 7 7 7 6 6 7 7 8 8 7 6 6 8 9 6 5 7 7 9 9
3 2 2 6 1 3 5 1 1 4 1 3 1 5 12 13 7 4 6 5 7 11 12 8 7 8 8 9 8 9 8 10 10 6 6 6 5 5 4 5 4 3 3 4 4 5 5 6 5 6 6 6 7 8 8 8 9 7 8 8 8 7 6 7 7 7 5 6 6 7 7 7 7 8 8 7 8 7 8 7 7 6 6 8 9 8 8 7 7 6 9 8 8 7 7 6 8
3 7 5 3 2 3 3 7 3 6 4 5 5 8 11 14 14 7 6 7 10 13 5 5 7 8 9 10 10 9 10 12 5 6 6 5 5 5 5 5 4 3 3 4 6 6 6 7 6 6 5 6 6 7 6 7 7 6 7 7 9 6 5 5 7 6 4 5 6 7 7 7 7 7 7 7 8 7 8 7 8 6 7 7 9 9 7 6 7 9 8 9 10 8 8 6 5
4 3 2 4 4 6 4 4 5 1 0 8 9 9 10 11 11 12 5 4 6 8 9 10 10 9 11 11 12 12 11 11 5 6 6 7 7 6 5 4 4 4 4 5 7 6 7 8 8 8 7 6 6 6 4 8 8 7 6 8 8 4 4 5 7 5 6 5 7 6 6 6 7 7 7 7 7 8 7 7 8 7 7 8 8 8 5 6 6 6 6 6 8 9 7 6 4
1 1 2 5 3 8 5 2 1 1 4 4 4 6 11 13 13 13 1 5 11 13 13 13 13 13 12 13 14 13 10 2 6 6 6 4 5 6 6 5 5 8 5 6 8 8 7 8 8 8 7 7 6 4 5 5 3 3 7 7 8 5 4 4 6 5 5 6 6 7 6 6 7 6 6 6 7 7 8 7 8 7 7 8 8 6 6 5 5 5 5 9 6 7 5 5 5
1 3 2 2 8 5 9 6 2 1 3 9 4 6 10 12 13 11 7 11 10 11 15 16 16 15 14 12 13 9 6 9 8 8 6 7 7 8 7 6 6 6 7 6 7 8 8 7 7 8 7 6 5 5 4 5 6 7 6 6 6 7 6 5 5 5 5 6 6 7 7 6 6 6 6 6 7 7 8 8 7 6 7 6 8 8 7 8 6 6 6 9 8 4 6 6 7
4 1 1 9 3 1 7 1 2 1 4 3 1 4 9 10 10 13 13 11 11 10 12 16 13 14 15 16 15 14 14 11 13 13 12 8 8 8 7 7 7 6 6 6 7 8 7 7 7 7 6 5 6 6 7 7 9 10 10 8 7 7 8 5 8 7 7 9 9 8 8 7 7 7 6 6 7 7 7 8 6 7 6 5 7 8 8 7 7 6 5 5 6 7 4 7 7
4 6 5 4 4 7 8 5 2 1 2 1 5 8 9 10 14 11 9 5 7 11 7 11 13 12 10 5 7 13 16 15 13 11 9 10 10 11 11 8 7 8 8 8 7 8 6 8 7 7 7 7 6 9 9 10 11 11 10 10 10 11 8 7 8 8 6 6 7 7 6 6 6 7 6 6 7 8 7 7 7 7 7 6 7 9 8 6 5 5 5 6 6 8 5 3 7
3 6 11 10 7 7 5 4 4 5 4 2 1 6 6 6 9 13 4 2 5 8 9 16 15 11 9 12 15 9 8 9 14 16 15 13 11 9 10 10 10 9 9 8 7 7 7 7 7 7 7 6 8 10 11 9 9 14 12 10 9 7 8 6 7 9 7 6 6 3 6 6 5 6 6 7 7 6 7 7 7 8 8 7 7 7 6 7 7 8 5 5 7 5 8 6 5
1 7 10 12 9 6 3 2 2 3 4 2 1 5 10 1 9 7 4 4 11 8 6 14 11 12 11 15 12 9 10 8 6 7 9 11 11 11 12 12 11 10 9 7 6 6 8 8 8 8 8 7 7 9 9 8 8 6 11 12 13 12 12 3 3 4 6 5 5 7 6 6 5 7 6 6 6 6 7 7 8 8 7 6 5 7 8 7 6 6 5 7 6 4 5 8 7
5 2 4 5 5 6 7 5 7 6 1 4 1 2 8 12 11 4 7 8 11 10 12 13 14 13 12 12 9 8 10 11 13 14 14 13 13 16 17 14 12 11 9 8 7 7 10 9 9 8 8 8 8 9 8 7 9 8 7 8 8 8 11 11 6 6 4 6 7 7 6 6 6 5 6 6 6 6 7 8 7 7 8 6 7 8 8 6 7 6 7 6 6 6 5 8 4
4 0 6 5 7 6 3 3 3 1 3 9 2 1 5 7 6 3 1 5 6 13 14 15 16 12 11 10 9 10 11 13 14 14 16 16 16 14 12 13 11 9 9 10 8 8 8 9 8 8 9 9 8 9 8 6 5 7 10 10 9 5 8 10 7 5 7 5 9 6 7 6 6 5 6 7 6 7 6 7 6 7 8 7 7 7 6 6 7 7 6 8 8 7 6 4 7
2 5 7 7 7 6 3 3 2 2 0 7 4 2 4 18 5 2 3 2 7 10 14 16 16 9 7 9 10 8 7 8 11 12 12 11 10 10 10 9 10 9 8 7 7 8 8 8 10 10 10 8 8 8 6 6 7 8 9 11 15 10 7 8 7 8 7 5 9 7 6 6 6 6 6 6 7 6 6 6 7 9 8 7 7 7 6 7 7 8 7 7 7 9 5 7 7
6 4 7 5 8 4 3 6 2 2 6 9 7 7 8 13 3 8 8 8 10 11 9 9 8 4 4 7 8 9 10 9 9 9 8 9 8 9 10 12 11 8 7 8 9 9 8 10 11 11 11 9 9 8 8 9 8 7 9 13 16 15 11 12 10 8 7 7 9 7 6 6 5 6 6 6 5 5 7 7 8 7 6 5 6 6 6 7 7 8 7 8 8 8 7 7 7
6 2 3 4 2 6 3 4 4 1 10 3 7 11 10 13 3 4 7 3 3 7 8 10 9 5 5 5 6 8 8 8 8 9 9 9 9 8 9 12 11 10 9 9 9 9 10 9 10 11 10 10 9 8 8 9 8 7 7 12 15 16 15 11 13 13 11 11 10 9 6 7 6 6 5 6 6 5 7 7 6 6 6 6 7 6 6 7 7 7 7 7 7 6 6 7 6
3 5 7 5 4 5 3 3 3 6 9 0 3 2 3 18 14 4 6 10 7 8 10 10 8 7 6 5 7 6 6 7 10 10 10 11 13 14 13 12 12 12 12 11 11 10 10 10 12 13 11 10 10 9 10 10 9 9 10 9 12 12 12 12 12 12 10 11 10 10 9 9 7 7 5 7 5 5 6 7 6 7 6 6 6 7 6 7 7 7 7 7 7 6 5 6 7
5 8 7 6 1 1 6 5 2 7 7 3 2 1 9 2 7 12 16 15 13 8 10 10 8 8 7 6 5 6 7 9 9 10 10 11 13 13 13 13 13 12 12 12 11 11 10 10 11 13 12 10 10 9 10 10 8 9 9 10 10 11 11 11 10 11 10 9 9 10 10 10 9 9 8 7 6 5 4 5 6 7 6 7 7 7 7 5 6 7 7 8 7 5 6 7 8
12 4 12 10 9 7 4 5 6 8 5 3 5 1 8 3 3 3 8 5 7 5 7 6 6 7 6 4 4 5 6 7 8 10 12 13 13 13 13 13 13 12 13 12 11 11 11 11 11 12 11 10 11 11 9 10 9 9 9 9 10 9 11 10 9 8 10 10 8 9 8 7 8 8 8 6 5 6 6 6 7 8 7 7 7 7 6 6 6 7 7 7 6 5 6 7 6
3 2 5 2 9 6 6 5 3 1 2 4 2 7 3 5 3 6 3 5 6 7 10 6 11 8 4 3 5 7 8 8 8 9 10 10 11 11 11 11 12 12 13 11 12 11 11 11 12 12 13 12 11 11 9 11 10 9 9 10 10 10 8 8 7 6 6 7 9 9 9 7 7 7 6 7 5 7 8 8 7 8 7 7 6 6 6 6 6 8 7 7 7 3 7 7 5
4 6 7 6 2 5 0 3 1 1 2 13 4 10 7 8 9 11 13 6 9 5 6 6 12 9 1 6 6 6 7 8 9 11 11 11 10 11 11 11 11 11 12 12 12 11 12 12 12 12 11 10 12 11 11 10 10 11 10 9 9 9 11 12 11 10 9 7 7 7 8 7 7 7 7 6 7 6 7 8 8 7 7 6 6 6 7 7 6 7 7 7 7 5 6 6 4
8 4 8 2 2 3 3 6 2 2 5 8 5 11 8 2 14 2 1 7 12 6 10 10 8 5 6 11 6 7 9 10 9 8 7 10 11 12 11 10 11 13 13 13 12 10 11 12 13 13 12 13 10 11 11 11 12 11 11 10 9 10 10 9 9 11 9 9 7 7 7 8 8 7 7 7 7 8 8 8 8 7 6 6 7 6 7 7 7 7 7 6 5 5 6 5 4
6 5 6 8 4 3 2 4 6 1 5 7 4 2 9 9 12 1 2 9 12 14 13 7 9 8 12 10 4 5 5 6 8 9 9 10 11 12 12 12 10 10 12 12 11 11 10 10 12 13 14 13 13 10 10 10 11 9 9 10 10 9 8 9 8 8 9 10 10 8 9 8 8 8 8 9 9 9 8 7 7 7 6 7 6 7 7 7 6 8 6 6 5 5 6 6 3
2 3 4 1 3 1 6 8 3 5 5 1 9 5 15 6 8 8 12 13 11 11 8 9 12 12 12 7 5 7 9 9 9 9 10 10 11 11 12 13 13 12 12 11 11 10 12 12 12 11 10 11 10 11 11 12 10 10 9 8 7 7 7 9 9 10 10 10 10 10 9 9 10 8 8 9 9 9 9 9 7 8 7 6 7 6 7 7 6 6 6 6 5 6 6 6 4
2 3 5 1 0 2 4 1 4 4 4 4 4 11 11 3 6 8 9 11 13 10 10 9 11 13 8 2 6 8 9 10 10 10 10 10 10 10 9 9 9 8 9 11 12 12 12 11 12 12 14 12 12 11 11 11 11 9 10 11 10 9 9 8 9 8 9 9 8 8 9 8 8 8 9 9 10 10 9 9 9 8 8 7 8 7 6 6 6 6 5 6 5 6 7 5 5
14 15 13 15 10 5 4 8 2 2 3 7 4 14 13 4 2 8 7 3 5 8 9 11 9 6 4 3 5 8 8 8 8 9 9 9 9 9 8 7 6 8 10 12 11 11 12 13 13 12 12 12 13 11 11 11 10 10 11 11 10 8 8 8 9 8 8 8 8 8 8 8 9 8 8 10 10 9 9 9 8 7 7 7 7 7 6 6 6 7 6 4 6 6 6 5 4
Wind_Direction
327 341 324 340 60 92 48 359 96 335 61 9 45 25 196 81 207 78 122 342 55 320 321 41 40 38 172 172 141 136 231 122 209 125 213 235 261 276 313 164 166 139 144 150 168 167 183 155 145 145 133 123 119 120 122 122 118 112 109 112 109 97 93 97 102 98 95 94 94 93 94 96 97 97 95 91 87 82 80 75 70 64 60 56 53 52 53 53 54 56 56 56 54 52 50 47 46
317 336 6 344 40 49 255 116 98 5 42 58 258 94 228 309 64 164 128 133 203 110 151 82 70 66 77 106 117 104 40 52 184 199 264 232 294 14 346 141 158 149 147 149 154 165 146 160 139 140 134 126 123 123 123 122 118 113 109 106 104 100 98 100 98 95 95 95 97 98 98 96 95 94 97 94 88 81 76 73 69 63 59 56 54 54 54 56 57 58 59 60 59 56 53 51 51
331 5 11 31 23 76 96 36 165 61 92 110 267 204 333 162 160 205 166 135 144 155 109 95 93 75 14 342 33 59 203 33 349 276 237 325 80 331 356 354 145 147 146 144 146 154 146 152 146 150 140 131 129 125 123 121 119 115 113 111 110 111 108 104 102 100 96 96 98 100 99 99 97 96 95 92 87 81 75 70 68 65 60 56 55 54 54 56 58 59 60 61 61 59 57 57 57
26 24 135 61 238 30 55 29 80 122 113 197 230 272 212 181 194 185 211 177 181 151 204 33 53 270 106 68 110 84 28 348 148 249 340 348 172 280 335 324 124 137 136 144 152 150 140 152 149 145 137 134 131 128 125 123 120 119 114 116 115 114 112 110 109 108 105 103 102 102 102 98 98 97 95 94 90 84 77 72 68 65 61 57 56 55 54 54 55 57 60 61 62 63 63 63 62
66 354 81 109 111 1 100 109 135 102 131 198 165 267 256 206 197 208 259 228 252 186 149 140 75 341 119 118 326 133 227 286 313 160 268 266 290 295 306 304 141 150 155 150 150 149 152 155 152 139 145 139 137 134 133 132 128 126 122 118 119 117 116 114 113 111 108 106 104 103 103 100 98 99 97 95 93 88 82 74 68 61 57 56 55 55 55 55 54 55 57 60 63 66 67 67 68
56 53 15 82 60 153 60 66 64 83 219 151 125 229 216 206 195 191 101 81 115 130 160 74 159 180 21 346 174 68 275 56 310 313 109 278 331 310 287 269 143 153 152 146 152 153 156 161 152 154 155 148 141 140 138 136 132 127 128 128 123 121 117 118 119 115 110 108 107 107 104 105 104 102 102 100 98 90 83 75 67 61 55 53 55 55 57 57 56 55 55 58 61 65 66 66 66
254 49 357 28 22 48 165 119 147 163 228 163 196 195 198 209 227 130 150 47 14 61 358 146 126 95 65 307 355 215 210 251 349 291 212 290 307 308 309 160 140 150 149 148 147 158 165 165 164 156 158 158 149 145 146 140 133 133 132 132 128 126 125 122 120 118 113 110 108 108 105 106 105 104 105 104 99 92 85 78 68 62 59 56 55 58 59 59 59 57 57 59 62 65 64 63 63
60 134 317 95 329 49 52 155 145 163 324 177 238 165 208 212 191 143 154 106 203 91 29 115 64 101 246 34 181 273 333 165 250 284 296 310 320 328 354 151 138 140 148 134 140 154 176 170 163 157 160 160 153 153 149 143 138 137 139 138 135 132 131 131 127 121 118 112 110 109 107 108 108 106 107 105 99 93 88 80 70 64 60 60 60 62 63 65 64 62 61 63 66 67 65 61 63
2 88 315 69 49 29 63 72 224 218 297 238 283 239 265 194 150 124 53 290 94 60 144 247 241 79 224 48 141 275 291 320 325 288 330 355 353 324 76 147 136 133 133 119 115 134 168 194 160 159 161 160 157 159 152 145 141 141 139 138 137 135 133 133 129 122 118 117 113 111 112 113 114 114 112 110 105 96 89 79 72 66 62 62 63 64 67 69 70 69 68 68 69 68 65 62 65
39 58 252 109 135 67 35 324 87 195 234 232 192 244 200 177 169 102 142 65 141 96 313 286 127 118 140 127 332 334 287 335 308 344 357 356 345 356 55 56 108 130 116 111 107 122 157 204 171 156 161 160 161 163 148 149 143 144 141 140 138 135 132 128 130 128 125 121 116 115 117 119 121 121 118 114 108 102 93 84 78 72 67 66 66 67 69 69 71 73 74 73 70 67 64 64 66
4 16 136 73 38 114 148 207 263 317 268 330 304 251 226 153 124 107 335 137 47 160 194 143 41 130 99 238 203 248 304 328 39 331 321 345 357 23 52 48 60 77 104 93 98 76 111 131 163 166 161 168 164 149 147 144 146 149 144 144 147 137 136 138 139 137 133 126 127 125 125 127 128 126 123 117 113 108 102 96 88 81 74 71 70 71 72 72 71 71 72 72 71 68 66 66 66
44 24 9 101 150 151 220 153 212 260 299 341 209 275 238 156 119 99 135 109 135 69 128 91 196 151 66 23 289 277 324 3 349 278 311 348 28 27 52 56 55 48 55 66 75 56 80 75 330 273 164 172 162 141 141 146 152 144 137 148 152 143 144 147 145 143 138 133 129 129 133 134 134 130 126 124 119 115 108 101 96 90 83 76 74 74 75 75 74 73 72 71 71 70 69 68 67
115 99 86 80 182 97 169 111 204 279 337 256 173 248 103 127 176 161 151 105 26 112 14 278 148 90 113 195 256 315 349 210 308 292 6 22 20 29 45 52 51 43 36 32 58 40 40 25 73 198 209 150 154 174 142 143 125 131 129 128 139 145 140 151 152 151 151 142 132 137 140 133 129 131 130 128 127 119 111 106 101 94 89 81 77 75 73 74 76 77 74 71 69 68 67 66 65
115 178 120 124 40 118 133 174 343 157 250 230 271 282 287 135 221 170 131 83 300 107 216 314 119 137 92 46 260 265 239 241 297 58 45 37 38 49 53 51 50 52 38 44 46 50 29 18 21 329 171 183 156 165 145 152 158 146 99 106 120 135 145 152 157 157 153 140 141 138 127 126 132 135 134 133 131 120 112 110 106 104 97 92 85 80 78 75 76 76 74 70 68 66 66 66 67
101 138 82 116 75 82 244 129 198 157 212 177 208 129 92 341 113 120 141 124 247 225 306 2 150 104 224 148 263 206 206 206 138 89 70 56 48 52 50 52 56 50 31 33 0 45 22 15 11 336 339 114 143 138 151 174 148 185 154 133 109 138 155 153 155 151 142 135 131 129 129 131 137 140 138 127 124 120 121 118 113 108 105 100 94 88 83 79 78 77 73 67 63 66 68 69 69
139 85 83 98 162 131 227 128 41 104 234 175 279 178 82 352 40 102 229 176 163 335 3 201 6 182 289 164 252 196 174 189 134 97 81 62 49 46 39 33 16 26 28 17 351 38 26 6 354 348 359 25 342 149 174 153 170 187 151 153 92 66 88 153 143 138 123 110 115 123 123 127 132 136 130 119 130 132 125 123 118 110 111 108 100 91 85 82 80 78 74 68 62 59 61 63 67
52 82 56 49 157 160 216 150 147 190 243 247 278 218 125 216 305 98 248 62 107 353 32 342 272 15 147 205 311 320 12 140 112 95 84 59 47 39 27 25 8 28 13 23 14 12 13 2 340 8 356 10 344 317 149 132 190 156 155 155 160 348 70 101 124 115 117 113 125 130 128 126 114 114 122 123 129 131 136 130 125 121 115 111 103 95 87 82 79 76 74 71 65 58 49 49 50
55 64 115 88 192 144 203 175 187 215 140 217 189 196 114 154 304 194 45 37 69 22 54 319 359 20 265 288 339 333 108 127 130 116 106 85 47 56 57 4 4 9 351 342 3 359 351 1 341 3 338 348 341 300 68 158 149 196 168 161 161 220 111 113 121 122 118 107 107 122 122 134 108 106 98 130 132 138 143 140 129 117 113 105 106 103 96 88 80 73 71 75 72 61 53 48 42
88 120 88 181 189 224 149 204 201 121 235 170 188 143 142 200 142 215 117 300 54 70 350 19 356 342 25 28 2 59 106 130 134 126 129 125 113 122 109 10 24 359 360 355 336 354 344 320 351 356 325 343 323 330 25 218 181 188 148 155 169 160 125 142 131 129 122 124 134 137 103 108 125 125 125 146 149 155 153 146 130 116 114 110 106 99 94 86 78 73 70 77 78 71 63 59 56
183 111 90 244 204 231 201 179 205 209 131 150 160 193 163 206 139 149 213 173 46 191 184 315 231 229 208 268 50 72 104 118 129 133 128 119 117 138 131 108 47 353 307 304 312 313 338 332 331 319 315 329 306 7 350 305 186 187 159 180 164 142 134 116 100 115 125 141 148 151 155 136 112 122 128 133 132 136 154 142 130 122 118 107 95 83 75 71 68 72 73 62 52 67 72 65 63
244 68 158 199 183 112 226 169 233 213 160 149 138 93 137 250 211 159 161 105 257 257 223 172 199 198 197 199 157 117 122 123 122 129 127 118 98 109 163 171 162 233 262 300 327 328 328 328 326 318 328 321 340 355 328 323 292 178 144 148 134 137 118 130 131 123 136 146 144 152 140 125 150 129 133 151 143 146 150 144 132 132 130 124 112 93 93 88 82 75 70 64 51 44 67 60 63
86 67 211 168 132 67 231 190 150 128 159 102 108 122 205 65 66 117 149 173 226 212 229 214 202 176 172 174 178 134 135 142 145 147 153 152 154 148 167 272 299 290 305 18 316 319 321 318 304 298 303 308 332 309 293 288 294 213 152 142 140 133 151 146 147 147 147 144 133 149 142 132 131 125 116 103 147 166 154 151 145 143 129 118 104 100 98 98 98 94 85 80 64 53 52 69 64
90 321 320 209 197 148 232 155 205 144 120 123 150 207 89 136 239 192 175 204 228 255 252 239 187 169 154 125 139 140 148 156 164 165 159 153 150 164 168 190 152 66 348 322 307 312 306 307 305 308 302 316 318 276 281 22 337 258 153 143 137 129 130 114 109 112 131 120 117 124 134 121 116 114 123 111 89 82 60 84 92 75 85 74 94 115 95 86 94 95 89 80 78 67 50 50 62
104 163 341 262 190 203 172 165 133 159 122 194 204 74 169 142 226 135 207 244 262 331 9 147 126 121 133 137 166 160 165 165 174 173 182 168 163 172 177 165 202 214 39 327 303 291 292 294 293 299 300 314 278 267 26 78 79 65 70 78 77 108 87 82 86 67 51 82 66 58 85 108 116 106 99 94 75 65 70 59 66 72 65 63 30 48 98 83 72 64 60 57 63 63 63 50 53
82 75 228 269 146 259 352 48 103 137 159 102 115 139 231 175 189 93 247 237 104 55 84 101 114 117 123 138 156 155 152 155 153 169 138 178 169 160 198 221 148 153 222 257 277 288 289 303 308 308 304 266 227 131 82 91 88 79 68 54 77 347 97 65 68 79 52 64 64 59 69 94 91 94 85 84 80 69 64 67 71 54 63 44 49 42 59 76 79 72 64 62 65 64 60 51 55
148 190 136 340 319 336 30 49 291 200 109 111 103 232 301 246 303 237 233 190 167 109 89 112 119 123 148 162 167 163 164 170 160 158 175 190 183 137 184 200 174 200 227 260 283 295 296 291 291 294 290 212 147 101 74 88 74 82 73 65 53 357 90 90 58 74 65 60 75 74 69 72 82 108 114 108 103 93 80 74 78 78 69 69 83 73 63 78 80 79 74 67 72 70 67 54 63
143 126 145 131 346 351 29 189 244 241 271 204 176 234 254 350 109 269 32 183 135 108 116 127 139 157 167 167 174 179 164 179 177 155 114 168 216 177 202 231 185 221 243 260 286 274 288 301 297 302 259 168 109 94 84 96 88 86 88 76 63 53 85 98 80 83 71 69 86 87 89 90 96 95 99 108 98 93 84 75 67 68 66 57 75 83 68 81 80 73 73 64 67 75 73 59 65
39 108 46 358 339 263 229 340 275 73 273 173 182 225 265 299 92 234 196 186 162 141 152 159 164 168 176 178 180 187 184 188 172 155 176 186 201 197 199 195 193 240 237 243 274 295 299 304 322 319 83 110 104 98 100 103 96 96 90 88 79 62 76 89 90 89 68 49 83 98 94 96 102 96 100 96 95 94 88 79 69 67 65 56 60 73 73 70 80 82 76 77 75 78 76 63 57
262 35 337 299 357 349 222 203 233 154 253 154 160 334 268 187 231 245 248 145 156 149 166 181 183 190 187 189 183 185 196 189 181 188 201 202 198 193 194 212 182 212 242 235 263 284 296 339 349 25 83 104 104 104 100 107 100 102 88 94 89 44 92 77 74 70 84 46 34 73 76 78 66 84 81 83 87 89 89 88 77 68 65 67 72 73 76 75 79 77 73 76 66 67 67 65 67
115 38 97 335 356 328 303 230 42 145 246 156 165 272 254 235 235 269 156 148 128 141 187 198 201 197 202 196 197 202 219 190 201 210 207 211 198 198 202 218 209 203 207 246 223 124 337 356 26 62 80 96 101 103 102 100 93 90 79 71 94 90 74 86 80 62 74 62 59 49 67 62 66 63 76 79 80 82 79 78 84 74 66 66 72 68 67 56 72 73 73 73 63 66 69 62 82
156 258 61 196 11 273 288 93 169 151 206 167 72 223 274 269 281 259 177 168 161 188 201 206 206 206 207 208 202 207 217 208 205 212 217 208 201 198 209 235 217 209 233 236 171 132 54 55 52 79 86 87 97 97 95 95 93 66 86 66 78 60 103 94 80 73 64 66 73 67 64 68 66 68 66 80 77 85 84 81 74 78 80 75 78 72 77 60 63 66 58 79 73 70 70 66 80
20 48 286 325 157 277 295 237 163 169 336 84 119 272 258 268 266 292 187 180 176 198 203 209 210 209 210 210 211 213 218 219 236 221 209 203 194 197 205 215 209 205 206 196 159 119 86 73 66 91 82 80 78 95 90 90 84 64 79 68 78 70 89 82 97 81 65 72 76 70 72 73 73 70 74 79 86 82 89 84 78 82 79 69 68 67 71 69 70 71 44 56 94 68 82 70 73
352 117 268 262 101 265 336 352 260 54 114 359 175 230 329 311 300 312 174 179 195 212 223 220 220 218 213 213 214 214 222 236 240 225 215 199 206 200 203 214 204 209 189 175 162 125 101 87 76 84 91 96 94 84 88 94 87 70 82 61 72 73 69 75 85 88 79 64 79 70 69 79 77 76 77 81 92 90 90 88 78 77 81 84 76 72 68 64 74 82 58 42 66 101 89 91 80
293 26 218 204 184 255 261 301 273 241 139 204 256 229 242 229 298 47 202 184 192 225 234 226 222 222 219 219 217 215 215 211 216 207 210 201 204 206 214 211 208 198 193 177 165 138 126 115 97 95 96 93 98 97 82 95 89 90 76 67 62 62 73 63 67 82 78 72 70 79 72 80 80 80 78 84 88 88 88 90 86 78 84 85 86 76 72 68 66 78 82 52 59 94 91 95 94
210 204 281 292 267 206 248 329 262 127 299 203 229 243 265 271 268 213 208 191 194 225 224 225 223 223 222 221 219 219 217 216 217 195 195 200 203 207 204 204 195 190 178 169 142 126 120 113 113 102 100 106 104 101 105 89 81 87 82 82 69 52 47 64 64 48 70 73 72 77 77 81 81 81 86 89 97 96 91 89 87 80 87 88 81 77 71 66 72 73 93 88 67 63 86 82 98
187 168 184 178 221 242 205 239 274 176 195 233 207 220 246 260 271 248 214 195 203 229 243 257 235 226 227 223 223 217 217 225 198 191 192 193 196 194 197 195 185 172 176 157 137 134 128 124 122 115 110 110 106 112 126 99 94 86 100 95 74 49 47 52 48 47 41 58 62 69 74 80 81 87 90 90 92 94 95 90 87 76 77 85 86 81 73 70 82 86 72 92 90 71 53 53 64
106 102 121 214 219 275 277 268 260 258 58 231 223 231 242 257 255 263 201 188 232 247 244 239 235 226 224 226 221 220 217 219 174 189 188 191 194 192 196 186 174 166 172 158 146 147 148 145 139 135 135 130 129 136 132 127 129 114 79 91 96 42 54 65 65 45 51 52 62 65 69 77 82 87 86 94 96 96 89 88 87 76 76 80 82 83 82 80 69 80 90 57 81 85 46 12 10
162 122 175 274 164 251 233 243 358 327 172 292 247 239 250 250 258 260 188 174 226 223 233 239 236 228 227 223 224 218 214 107 160 194 199 193 193 192 189 188 171 166 177 166 159 159 155 152 145 141 143 145 143 137 126 100 81 97 123 121 114 94 75 54 73 46 56 59 56 62 67 68 75 79 84 91 93 95 99 88 82 82 80 80 82 83 75 67 62 59 88 75 35 78 57 9 342
93 194 230 286 264 252 276 260 261 267 138 255 257 236 252 254 254 263 225 214 231 219 217 226 223 227 228 224 225 214 182 198 185 194 184 189 191 189 187 188 184 178 171 173 163 156 158 156 150 147 151 147 134 117 104 103 97 92 103 108 109 104 58 59 69 66 47 58 48 34 47 59 73 71 70 75 87 82 86 89 82 79 73 90 94 75 70 64 56 63 61 107 98 61 85 31 17
189 150 154 233 232 78 294 307 7 221 175 265 39 307 278 276 258 250 248 220 238 232 224 237 227 227 225 220 212 204 205 190 193 189 189 184 186 186 186 189 182 171 172 172 169 165 162 160 155 148 135 124 117 102 101 94 95 93 84 88 80 82 111 91 78 66 70 66 50 29 40 36 59 69 62 69 76 74 79 85 84 76 72 63 86 87 71 64 56 50 61 62 105 82 43 37 22
240 199 208 234 211 230 194 250 313 311 316 49 306 288 277 247 265 265 254 249 250 257 240 250 247 238 242 249 226 212 206 194 188 184 182 182 187 190 187 184 174 178 179 176 173 169 164 162 153 135 130 128 119 120 116 120 113 98 96 88 91 94 76 85 90 70 61 76 77 54 47 46 58 68 67 70 81 84 80 84 88 85 81 66 76 82 76 74 66 65 60 71 53 116 89 97 35
287 228 202 217 215 230 264 318 359 3 328 339 73 318 272 261 246 252 281 351 245 251 230 245 241 235 230 232 229 210 213 190 188 187 185 184 184 178 183 187 185 181 181 178 172 165 151 149 140 128 118 122 130 130 136 140 139 135 131 126 118 112 110 115 118 128 118 90 88 85 60 50 62 73 71 76 78 86 88 88 90 88 80 74 73 85 90 76 59 61 40 77 75 46 118 94 70
198 270 197 215 216 215 225 238 93 284 244 289 25 220 282 265 273 247 248 235 253 263 231 253 251 240 224 229 227 202 196 181 181 181 180 180 188 181 184 190 186 181 180 162 160 153 147 143 142 138 137 134 130 136 143 141 138 143 140 142 141 142 128 70 60 58 103 96 89 82 77 59 54 78 70 75 83 88 90 84 83 84 85 83 84 86 76 73 68 59 47 62 56 63 76 94 94
232 251 167 192 194 201 224 190 189 237 263 299 35 135 266 291 269 229 210 204 238 264 266 258 251 241 230 230 221 204 191 186 183 188 189 189 184 184 185 187 183 182 163 155 155 153 149 146 141 140 137 142 147 150 154 157 147 146 125 115 119 130 133 133 126 109 91 108 97 89 85 71 62 67 88 80 80 81 86 83 86 87 87 80 81 77 83 82 84 67 69 76 71 58 74 110 102
217 247 147 166 185 201 156 155 193 232 22 284 311 341 305 236 267 338 106 216 263 257 255 255 252 239 229 230 221 209 196 191 184 185 189 188 188 187 181 182 181 165 163 165 160 156 146 140 137 135 139 143 154 159 158 160 154 149 138 128 108 77 111 119 119 113 113 116 102 93 90 88 81 71 71 81 73 79 82 95 95 92 87 80 80 82 76 76 81 87 77 70 73 63 60 80 94
255 121 85 80 76 67 112 97 117 318 6 252 211 171 237 275 205 154 348 205 235 241 246 249 251 250 221 222 222 208 195 191 194 193 185 185 183 183 182 173 169 168 161 149 145 146 147 144 144 146 148 150 160 158 155 143 145 146 138 134 125 126 121 116 122 127 124 127 108 108 105 99 95 84 71 72 81 78 89 90 88 86 86 87 86 95 98 87 81 77 73 79 81 81 67 75 86
127 89 74 25 42 36 27 66 83 24 259 246 212 207 179 283 177 182 154 208 197 229 258 269 273 266 245 225 211 199 194 188 186 181 180 180 179 176 171 176 172 153 154 153 150 153 154 152 152 156 157 155 161 161 155 152 152 156 145 142 136 138 145 140 135 134 135 128 121 122 117 108 96 94 91 79 79 90 85 79 86 87 89 93 97 92 85 86 80 82 80 77 71 82 79 85 83
135 105 123 61 342 12 33 342 40 182 264 216 208 202 177 233 282 264 231 266 238 211 233 255 272 271 259 231 219 203 190 182 172 171 172 166 162 178 178 175 169 163 156 159 159 156 160 158 155 152 157 162 161 160 153 151 151 150 151 148 143 146 150 154 149 149 152 142 138 132 127 112 102 99 99 99 89 86 93 89 91 97 97 98 88 91 86 88 87 86 81 81 81 76 80 82 81
89 93 89 128 249 33 290 26 256 200 246 288 22 123 348 241 244 235 269 254 253 222 223 241 259 270 250 234 218 201 182 170 175 177 171 174 177 176 182 176 167 171 173 166 166 163 161 160 160 155 164 165 161 161 157 154 151 153 153 152 144 146 149 153 150 148 155 147 145 138 140 132 133 121 123 113 113 112 116 116 114 110 104 96 102 93 88 89 92 90 89 84 81 78 79 88 88
142 158 152 134 215 219 255 271 266 305 294 282 11 80 253 314 286 209 233 237 233 227 231 242 245 254 250 233 210 189 185 182 181 177 179 181 180 182 181 175 174 174 172 170 167 166 165 164 164 161 165 165 159 158 155 152 154 152 152 152 152 150 152 155 156 152 156 149 148 146 148 147 146 144 144 138 144 128 113 118 115 104 101 101 97 94 94 93 95 95 93 90 86 86 85 85 88
200 127 165 184 156 163 209 200 224 234 231 286 279 114 235 114 246 284 257 284 289 258 252 253 257 248 253 252 197 179 180 188 178 182 185 184 184 181 180 178 176 175 172 170 170 169 166 166 165 164 160 165 159 158 155 154 150 152 152 153 155 155 153 155 156 157 154 150 152 145 143 144 140 147 144 143 139 133 128 119 111 104 100 99 100 101 100 99 99 95 89 92 84 80 83 87 86
223 169 67 103 219 133 232 207 177 268 333 334 211 213 196 184 270 292 246 287 293 266 260 258 269 250 239 225 188 192 193 185 185 187 187 189 184 181 181 180 176 173 173 172 172 169 169 168 167 167 165 164 162 157 162 156 155 153 155 158 164 157 151 146 144 147 150 149 150 147 145 143 139 136 135 138 148 138 129 116 103 102 103 103 104 110 111 105 102 99 92 90 88 73 92 86 92
210 113 206 210 177 144 207 31 38 93 39 255 129 276 265 299 271 236 243 247 257 267 280 274 257 265 248 243 213 199 191 187 189 193 190 184 180 187 185 179 175 174 174 177 175 173 171 166 166 164 165 164 163 165 160 159 154 155 162 163 162 162 160 161 160 157 153 148 142 141 139 139 135 141 141 145 138 129 121 117 113 112 109 110 109 108 107 102 99 97 103 102 99 96 92 97 98
98 186 227 139 105 93 150 227 351 64 212 270 137 245 286 56 283 3 54 224 250 261 256 242 261 300 266 248 214 191 191 197 196 193 187 185 184 181 182 183 181 178 175 173 175 172 172 169 166 165 165 167 171 164 162 160 160 161 162 169 170 168 162 157 154 153 150 143 139 132 131 140 154 155 147 145 136 127 119 116 116 116 117 115 116 111 106 105 103 97 102 99 112 111 103 92 94
142 196 188 128 235 251 289 92 255 201 260 276 284 261 261 190 248 87 213 203 233 240 243 254 268 255 245 248 196 194 190 187 187 188 184 185 185 186 183 182 181 179 176 174 170 169 168 170 169 170 169 170 168 168 162 161 164 163 168 171 169 164 162 154 151 149 148 147 148 151 154 151 145 152 147 143 135 128 125 120 122 125 127 125 119 114 113 109 110 112 110 113 114 112 108 103 94
52 77 140 45 103 168 138 200 178 127 258 44 286 57 275 156 227 189 226 205 216 224 235 241 242 248 244 236 183 187 195 196 191 191 191 188 187 185 183 180 179 177 174 173 172 171 172 170 167 170 168 165 166 166 166 165 168 163 165 160 165 163 156 156 157 155 156 156 156 157 154 158 162 154 151 143 136 135 135 133 136 137 134 131 122 116 115 113 110 113 123 119 125 119 109 107 100
155 133 195 179 2 249 113 10 148 170 179 181 278 301 261 239 201 180 209 205 212 205 218 229 241 244 258 214 185 196 200 196 195 190 187 185 185 182 184 183 177 171 173 172 175 178 174 169 172 172 171 171 171 171 169 171 162 167 163 167 166 163 160 156 156 161 154 157 157 158 164 161 149 159 152 145 142 141 141 141 142 142 139 135 127 123 118 119 118 120 116 123 125 117 112 110 110
180 181 196 184 143 162 162 246 58 122 127 242 168 256 275 255 171 201 201 218 238 198 204 226 241 264 296 215 202 199 200 204 194 189 181 181 177 177 177 173 172 174 180 180 177 173 177 179 177 171 171 174 173 174 174 166 166 163 172 167 167 162 156 155 159 158 157 159 162 165 164 158 162 159 156 148 147 145 141 141 137 132 129 123 121 124 122 118 125 124 122 123 122 118 115 119 112